TimeCDT,TemperatureF,Dew PointF,Humidity,Sea Level PressureIn,VisibilityMPH,Wind Direction,Wind SpeedMPH,Gust SpeedMPH,PrecipitationIn,Events,Conditions,WindDirDegrees,DateUTC
12:15 AM,80.6,69.8,70,30.01,10.0,SSE,9.2,-,N/A,,Clear,150,2013-08-29 05:15:00
12:35 AM,80.6,69.8,70,30.01,10.0,SSE,9.2,-,N/A,,Clear,150,2013-08-29 05:35:00
12:55 AM,80.6,69.8,70,30.01,10.0,SSE,10.4,-,N/A,,Clear,160,2013-08-29 05:55:00
1:15 AM,78.8,69.8,74,30.01,10.0,SSE,9.2,-,N/A,,Clear,160,2013-08-29 06:15:00
1:35 AM,77.0,69.8,78,30.01,10.0,SSE,6.9,-,N/A,,Clear,160,2013-08-29 06:35:00
1:55 AM,77.0,69.8,78,30.01,10.0,SSE,4.6,-,N/A,,Clear,160,2013-08-29 06:55:00
2:15 AM,77.0,69.8,78,30.01,10.0,SE,3.5,-,N/A,,Clear,140,2013-08-29 07:15:00
2:35 AM,75.2,69.8,83,30.01,10.0,Calm,Calm,-,N/A,,Clear,0,2013-08-29 07:35:00
2:55 AM,75.2,68.0,78,30.01,10.0,ESE,3.5,-,N/A,,Clear,120,2013-08-29 07:55:00
3:15 AM,73.4,68.0,83,30.01,10.0,Calm,Calm,-,N/A,,Clear,0,2013-08-29 08:15:00
3:35 AM,73.4,68.0,83,30.01,10.0,SE,3.5,-,N/A,,Clear,140,2013-08-29 08:35:00
3:55 AM,73.4,68.0,83,30.01,10.0,SSE,3.5,-,N/A,,Clear,150,2013-08-29 08:55:00
4:15 AM,73.4,68.0,83,30.01,10.0,Calm,Calm,-,N/A,,Clear,0,2013-08-29 09:15:00
4:35 AM,73.4,68.0,83,30.01,10.0,ESE,4.6,-,N/A,,Clear,110,2013-08-29 09:35:00
4:55 AM,73.4,68.0,83,30.01,10.0,ESE,4.6,-,N/A,,Clear,120,2013-08-29 09:55:00
5:15 AM,73.4,68.0,83,30.01,10.0,SE,3.5,-,N/A,,Clear,130,2013-08-29 10:15:00
5:35 AM,71.6,68.0,88,30.02,10.0,ESE,3.5,-,N/A,,Clear,110,2013-08-29 10:35:00
5:55 AM,71.6,68.0,88,30.02,10.0,SE,4.6,-,N/A,,Clear,140,2013-08-29 10:55:00
6:15 AM,71.6,68.0,88,30.02,10.0,ESE,3.5,-,N/A,,Clear,110,2013-08-29 11:15:00
6:35 AM,71.6,68.0,88,30.02,10.0,ESE,3.5,-,N/A,,Clear,120,2013-08-29 11:35:00
6:55 AM,71.6,68.0,88,30.02,10.0,SE,3.5,-,N/A,,Clear,130,2013-08-29 11:55:00
7:15 AM,71.6,68.0,88,30.03,10.0,Calm,Calm,-,N/A,,Clear,0,2013-08-29 12:15:00
7:35 AM,71.6,68.0,88,30.03,10.0,SE,3.5,-,N/A,,Clear,130,2013-08-29 12:35:00
7:55 AM,73.4,68.0,83,30.03,10.0,ESE,3.5,-,N/A,,Clear,120,2013-08-29 12:55:00
8:15 AM,73.4,68.0,83,30.03,10.0,SE,4.6,-,N/A,,Scattered Clouds,140,2013-08-29 13:15:00
8:35 AM,75.2,68.0,78,30.04,10.0,SSE,4.6,-,N/A,,Mostly Cloudy,150,2013-08-29 13:35:00
8:55 AM,78.8,68.0,69,30.04,10.0,South,6.9,-,N/A,,Overcast,170,2013-08-29 13:55:00
9:15 AM,82.4,66.2,58,30.04,10.0,SSW,9.2,-,N/A,,Scattered Clouds,210,2013-08-29 14:15:00
9:35 AM,82.4,66.2,58,30.04,10.0,SSW,8.1,-,N/A,,Mostly Cloudy,200,2013-08-29 14:35:00
9:55 AM,84.2,64.4,51,30.04,10.0,SSW,8.1,-,N/A,,Overcast,210,2013-08-29 14:55:00
10:15 AM,84.2,64.4,51,30.04,10.0,SSW,8.1,-,N/A,,Overcast,200,2013-08-29 15:15:00
10:35 AM,86.0,64.4,48,30.04,10.0,SSW,10.4,-,N/A,,Mostly Cloudy,210,2013-08-29 15:35:00
10:55 AM,87.8,64.4,46,30.04,10.0,SW,9.2,-,N/A,,Clear,220,2013-08-29 15:55:00
11:15 AM,91.4,62.6,38,30.04,10.0,SW,11.5,-,N/A,,Clear,220,2013-08-29 16:15:00
11:35 AM,93.2,62.6,36,30.04,10.0,SSW,10.4,-,N/A,,Clear,200,2013-08-29 16:35:00
11:55 AM,95.0,62.6,34,30.04,10.0,SSW,9.2,-,N/A,,Clear,210,2013-08-29 16:55:00
12:15 PM,96.8,62.6,32,30.03,10.0,SSW,11.5,17.3,N/A,,Clear,210,2013-08-29 17:15:00
12:35 PM,98.6,60.8,29,30.02,10.0,SW,16.1,19.6,N/A,,Clear,230,2013-08-29 17:35:00
12:55 PM,98.6,59.0,27,30.01,10.0,SW,13.8,20.7,N/A,,Clear,230,2013-08-29 17:55:00
1:15 PM,100.4,59.0,25,30.01,10.0,SW,13.8,23.0,N/A,,Partly Cloudy,220,2013-08-29 18:15:00
1:35 PM,100.4,59.0,25,30.00,10.0,SSW,15.0,23.0,N/A,,Partly Cloudy,210,2013-08-29 18:35:00
1:55 PM,100.4,59.0,25,30.00,10.0,SSW,11.5,19.6,N/A,,Clear,200,2013-08-29 18:55:00
2:15 PM,100.4,59.0,25,30.00,10.0,SW,15.0,19.6,N/A,,Clear,230,2013-08-29 19:15:00
2:35 PM,100.4,59.0,25,29.99,10.0,SSW,15.0,19.6,N/A,,Partly Cloudy,200,2013-08-29 19:35:00
2:55 PM,100.4,59.0,25,29.98,10.0,SW,12.7,23.0,N/A,,Partly Cloudy,220,2013-08-29 19:55:00
3:15 PM,100.4,59.0,25,29.98,10.0,SSW,11.5,21.9,N/A,,Partly Cloudy,200,2013-08-29 20:15:00
3:35 PM,100.4,59.0,25,29.98,10.0,SSW,10.4,-,N/A,,Scattered Clouds,210,2013-08-29 20:35:00
3:55 PM,100.4,59.0,25,29.97,10.0,South,11.5,-,N/A,,Scattered Clouds,190,2013-08-29 20:55:00
4:15 PM,100.4,59.0,25,29.96,10.0,South,13.8,20.7,N/A,,Partly Cloudy,190,2013-08-29 21:15:00
4:35 PM,100.4,59.0,25,29.96,10.0,SSW,9.2,16.1,N/A,,Clear,200,2013-08-29 21:35:00
4:55 PM,100.4,59.0,25,29.95,10.0,SSE,11.5,-,N/A,,Clear,160,2013-08-29 21:55:00
5:15 PM,100.4,60.8,27,29.95,10.0,SSE,15.0,-,N/A,,Clear,160,2013-08-29 22:15:00
5:35 PM,98.6,60.8,29,29.95,10.0,South,16.1,21.9,N/A,,Scattered Clouds,190,2013-08-29 22:35:00
5:55 PM,98.6,59.0,27,29.95,10.0,South,15.0,20.7,N/A,,Partly Cloudy,180,2013-08-29 22:55:00
6:15 PM,98.6,60.8,29,29.95,10.0,South,17.3,20.7,N/A,,Partly Cloudy,170,2013-08-29 23:15:00
6:35 PM,96.8,60.8,30,29.96,10.0,South,18.4,23.0,N/A,,Clear,170,2013-08-29 23:35:00
6:55 PM,95.0,60.8,32,29.96,10.0,South,16.1,23.0,N/A,,Clear,170,2013-08-29 23:55:00
7:15 PM,93.2,62.6,36,29.95,10.0,South,15.0,-,N/A,,Clear,170,2013-08-30 00:15:00
7:35 PM,93.2,62.6,36,29.95,10.0,South,11.5,-,N/A,,Clear,170,2013-08-30 00:35:00
7:55 PM,91.4,62.6,38,29.96,10.0,SSE,10.4,-,N/A,,Clear,160,2013-08-30 00:55:00
8:15 PM,89.6,64.4,43,29.96,10.0,SSE,8.1,-,N/A,,Clear,160,2013-08-30 01:15:00
8:35 PM,86.0,64.4,48,29.96,10.0,SSE,8.1,-,N/A,,Clear,160,2013-08-30 01:35:00
8:55 PM,86.0,64.4,48,29.97,10.0,SSE,8.1,-,N/A,,Clear,160,2013-08-30 01:55:00
9:15 PM,84.2,66.2,55,29.97,10.0,SSE,6.9,-,N/A,,Mostly Cloudy,150,2013-08-30 02:15:00
9:35 PM,84.2,66.2,55,29.97,10.0,SSE,8.1,-,N/A,,Scattered Clouds,150,2013-08-30 02:35:00
9:55 PM,82.4,66.2,58,29.97,10.0,SSE,8.1,-,N/A,,Clear,150,2013-08-30 02:55:00
10:15 PM,80.6,66.2,61,29.97,10.0,SE,6.9,-,N/A,,Clear,140,2013-08-30 03:15:00
10:35 PM,80.6,66.2,61,29.97,10.0,SSE,8.1,-,N/A,,Clear,150,2013-08-30 03:35:00
10:55 PM,80.6,66.2,61,29.97,10.0,SSE,8.1,-,N/A,,Clear,150,2013-08-30 03:55:00
11:15 PM,80.6,66.2,61,29.97,10.0,SSE,8.1,-,N/A,,Clear,150,2013-08-30 04:15:00
11:35 PM,80.6,66.2,61,29.97,10.0,SSE,8.1,-,N/A,,Clear,150,2013-08-30 04:35:00
11:55 PM,80.6,66.2,61,29.97,10.0,SSE,8.1,-,N/A,,Clear,150,2013-08-30 04:55:00